Other Surface Observations
Issued by NWS

Home | Current Version | Previous Version | Text Only | Print | Product List | Glossary On
Versions: 1 2 3 4 5 6 7 8 9 10 11 12 13 14 15 16 17 18 19 20 21 22 23 24 25 26 27 28 29 30 31 32 33 34 35 36 37 38 39 40 41 42 43 44 45 46 47 48 49 50
961
SXUS52 KTAE 241019
OSOTAE
OSOTAE
North Florida/South Alabama/Southwest Georgia Weather Roundup
National Weather Service Tallahassee Florida
600 AM EDT MON APR 24 2017

Note: "fair" indicates few or no clouds below 12,000 feet with no
significant weather and/or obstructions to visibility.

!FLZ017-115-028-034-025-241100
...North Florida...

CITY           SKY/WX    TMP DP  RH WIND       PRES   REMARKS
TALLAHASSEE    CLEAR     54  52  93 W5        29.75R
APALACHICOLA   CLOUDY    58  55  90 NW8       29.76S
PERRY          PTCLDY    59  57  93 NW5       29.75R
CROSS CITY     PTCLDY    61  57  88 CALM      29.74R
JACKSONVILLE   MOCLDY    69  66  90 SW7       29.69S
$$

!FLZ112-006-005-002-011-241100
...Florida Panhandle...

CITY           SKY/WX    TMP DP  RH WIND       PRES   REMARKS
MARIANNA       CLOUDY    56  52  86 W7        29.76R
BONIFAY        NOT AVBL
PANAMA CITY NW CLOUDY    56  51  84 W8        29.77F
TYNDALL AFB    CLOUDY    58  52  81 NW12      29.77F
TYND DRONE APT CLOUDY    57  53  88 N10G18    29.77F
DE FUNIAK SPR  CLOUDY    50  50  99 W3        29.78S
EGLIN AFB      PTCLDY    52  49  88 NW8       29.78S
DESTIN         MOCLDY    58  53  84 VRB6      29.78F
HURLBURT       PTCLDY    55  45  68 W3        29.78S
CRESTVIEW      CLOUDY    55  48  77 NW8       29.80R
PENSACOLA      CLOUDY    58  48  69 NW8       29.79S
$$

!ALZ063-066-241100
...South Alabama...

CITY           SKY/WX    TMP DP  RH WIND       PRES   REMARKS
DOTHAN         MOCLDY    54  52  93 NW8       29.79S
OZARK CAIRNS   CLOUDY    52  49  92 CALM      29.76S
FT RUCKER HELI CLOUDY    52  50  93 CALM      29.76S
RUCKER HELI 3  CLOUDY    51  49  93 NW3       29.76S
RUCKER HELI 2  CLOUDY    53  50  90 NW3       29.75F
FLORALA APT    CLOUDY    53  49  86 VRB3      29.80R
ANDALUSIA      LGT RAIN  55  50  83 NW7       29.77R
TROY           CLOUDY    53  49  86 NW8       29.77S
EUFALA         CLOUDY    53  50  89 W3        29.73F
MOBILE         MOCLDY    52  48  86 W3        29.82S
$$

!GAZ120>161-241100
...Southwest and South Central Georgia...

CITY           SKY/WX    TMP DP  RH WIND       PRES   REMARKS
THOMASVILLE    FAIR      55  55 100 CALM      29.75R
BAINBRIDGE     MOCLDY    55  54  94 NW7       29.75S
MOODY AFB      CLEAR     58  54  87 W5        29.71S
VALDOSTA       PTCLDY    58  55  90 VRB3      29.72S
MOULTRIE       CLEAR     55  54  94 CALM      29.74F
BLAKELY        CLOUDY    55  52  88 CALM      29.76S
ALBANY         MOCLDY    53  53 100 W3        29.75F
TIFTON         FAIR      56  56 100 W7        29.72S
FITZGERALD     PTSUNNY   57  57  99 W6        29.74S
CORDELE        CLOUDY    58  58  97 W3        29.74S
AMERICUS       PTSUNNY   54  54 100 NW3       29.74S
HOMERVILLE     MOCLDY    61  61 100 NW5       29.71F
$$

!GMZ750-755-770-775-241100
...Coastal and Buoy Obs...

STATION/POSITION TIME  TEMP    WIND        PRES    VSBY  WAVE
                       AIR SEA DIR/SP/G                  HT/PER
                 (UTC) (F)     (DEG/KT/KT) (MB)    (MI)  (FT/S)
KEATON BEACH     1000   62     350/  4/  6 1006.6S
CEDAR KEY        1000   70     320/  6/  8 1006.9R
C TOWER          1000   62     330/ 17/ 20 1008.0R
APALACHICOLA BUO 0950   71 73  270/ 16/ 17 1007.1S         4/ 6
PANAMA CITY BUOY 0950   67 74  310/ 14/ 17 1008.3R         5/ 6
MOBILE BUOY      1000   64 74  330/ 16/ 19 1010.0
ORANGE BCH AL BU 0950   60 74  340/ 14/ 17 1008.6F         2/ 4
$$




USA.gov is the U.S. government's official web portal to all federal, state and local government web resources and services.